SCP
0 0 0 0 0 0 0 0 0 0 0 0 0 0 0 0 0 0 0 0 0 0 0 0 0 0 0 0 0 0 0 0 0 1 0 0 0 0 0 0 0 0 0 0
0 0 0 0 0 0 0 0 0 0 0 0 0 0 0 0 0 0 0 0 0 0 0 0 0 0 0 0 0 0 0 0 0 0 0 0 0 0 0 0 0 0 0 0
0 0 0 0 0 0 0 0 0 0 0 0 0 0 0 0 0 0 0 0 0 0 0 0 0 0 0 0 0 0 0 0 0 0 0 0 0 0 0 0 0 0 0 0
0 0 0 0 0 0 0 0 0 0 0 0 0 0 0 0 0 -0 -0 0 0 0 0 0 0 0 0 0 0 0 0 0 0 0 0 0 0 0 0 0 0 0 0 0
0 0 0 0 0 0 0 0 0 0 0 0 0 0 0 0 0 0 0 0 0 0 0 0 0 0 0 0 0 0 0 0 0 0 0 0 0 0 0 0 0 0 0 0
0 0 0 0 0 0 0 0 0 0 0 0 0 0 0 0 0 0 0 0 0 0 0 0 0 0 0 0 0 0 0 0 0 0 0 0 0 0 0 0 0 0 0 0
0 0 0 0 0 0 0 0 0 0 0 0 0 0 0 0 0 0 0 0 0 0 0 0 0 0 0 0 0 0 0 0 0 0 0 0 0 0 0 0 0 0 0 0
0 0 0 0 0 0 0 0 0 0 0 0 0 0 0 0 0 0 0 0 0 0 0 0 0 0 0 0 0 0 0 0 0 0 0 0 0 0 0 0 0 0 0 0
0 0 0 0 0 0 0 0 0 0 0 0 0 0 0 -0 0 0 0 0 0 0 0 0 0 0 0 0 0 0 0 0 0 0 0 0 0 0 0 0 0 0 0 0
0 0 0 0 0 0 0 0 0 0 0 0 0 0 0 0 0 0 0 0 0 0 0 0 0 0 0 0 0 0 0 0 0 0 0 0 0 0 0 0 0 0 0 0
0 0 0 0 0 0 -0 0 0 0 0 0 0 0 0 0 0 0 0 0 0 0 0 0 0 0 0 0 0 0 0 0 0 0 0 0 0 0 0 0 0 0 0 0
0 0 0 0 0 0 0 0 0 0 0 0 0 0 0 0 0 0 0 0 0 0 0 0 0 0 0 0 0 0 0 0 0 0 0 0 0 0 0 0 0 0 0 0
0 0 0 0 0 0 0 0 0 0 0 0 0 0 0 0 0 0 0 0 0 0 0 0 0 0 0 0 0 0 0 0 0 0 0 0 0 0 0 0 0 0 0 0
0 0 0 0 0 0 0 0 0 0 0 0 0 0 0 0 0 0 0 0 0 0 0 0 0 0 0 0 0 0 0 0 0 0 0 0 0 0 0 0 0 0 0 -0
0 0 0 0 0 0 0 0 0 0 0 0 0 0 0 0 0 -0 -0 -0 0 0 0 0 0 0 0 0 0 0 0 0 0 0 0 0 0 0 0 0 0 0 0 -0
0 0 0 0 0 0 0 -0 -0 0 0 0 0 0 0 0 0 0 0 0 0 0 0 0 0 0 0 0 0 0 0 0 0 0 0 0 0 0 0 0 0 0 -0 -0
0 0 0 0 0 0 0 0 0 0 0 0 0 0 0 0 0 -0 0 -0 -0 0 0 0 0 0 0 0 0 0 0 0 0 0 0 0 0 0 0 0 -0 -0 -0 -0
0 0 0 0 0 0 -0 0 -0 0 0 0 0 0 0 0 0 -0 -0 -0 -0 -0 0 0 0 0 0 0 0 0 0 0 0 0 0 0 0 0 0 0 -0 -0 -0 -0
0 0 0 0 0 -0 -0 -0 0 -0 -0 0 0 0 0 0 0 -0 -0 -0 -0 -0 0 0 0 0 0 0 0 0 0 0 0 0 0 0 0 0 0 0 -0 -0 -0 -0
0 0 0 0 0 0 0 -0 -0 0 0 -0 -0 0 0 0 -0 -0 -0 -0 -0 -0 0 0 0 0 0 0 0 0 0 0 0 0 0 0 0 0 0 0 -0 -0 -0 -0
0 0 0 0 0 0 0 -0 0 -0 -0 -0 -0 -0 0 0 0 0 -0 0 0 0 0 0 0 0 0 0 0 0 0 0 0 0 0 0 0 0 0 0 0 -0 -0 -0
0 0 0 0 0 0 0 -0 -0 -0 -0 -0 -0 -0 -0 0 0 0 0 0 0 0 0 0 0 0 0 0 0 0 0 0 0 0 0 0 0 0 0 0 0 0 -0 -0
0 0 0 0 0 0 -0 -0 -0 0 -0 0 0 -0 -0 -0 0 0 0 0 0 0 0 0 0 0 0 0 0 0 0 0 0 0 0 0 0 0 0 0 0 0 0 -0
0 0 0 0 0 -0 -0 -0 0 0 0 0 0 0 0 -0 0 0 0 0 0 0 0 0 0 0 0 0 0 0 0 0 0 0 0 0 0 0 0 0 0 0 0 0
0 0 0 0 -0 0 0 0 0 0 0 0 0 0 0 -0 -0 0 0 0 0 0 0 0 0 0 0 0 0 0 0 0 0 0 0 0 0 0 0 0 0 -0 -0 0
0 0 0 0 0 -0 -0 -0 -0 0 0 0 0 0 0 0 -0 -0 0 0 0 0 0 0 0 0 0 0 0 0 0 0 0 0 0 0 0 0 0 0 0 0 0 -0
Wind_Speed_500mb
19 7 14 22 16 17 17 26 27 18 12 11 10 16 21 34 32 32 50 53 53 52 50 49 43 62 58 56 58 60 64 60 54 49 50 45 40 36 34 31 30 30 32 34
9 18 20 24 22 23 20 19 18 18 10 18 23 39 19 16 23 51 44 56 65 67 66 58 59 60 68 66 66 67 67 58 51 46 45 46 40 35 28 32 36 37 30 38
19 18 16 26 26 26 21 12 18 22 8 7 14 38 23 17 33 51 59 68 68 65 63 63 59 53 76 76 74 71 65 58 53 48 49 47 39 34 33 29 26 25 27 31
17 26 22 30 17 15 15 14 20 11 9 15 10 20 29 19 28 32 41 48 36 33 30 32 41 43 85 86 80 75 66 59 52 52 53 49 47 40 29 23 25 23 29 31
13 16 14 12 10 12 18 8 20 11 9 10 6 3 24 10 15 20 20 15 16 13 11 5 18 26 79 85 80 70 61 56 53 52 50 50 47 41 35 27 16 12 25 24
17 26 12 10 19 15 14 10 10 6 6 12 14 13 39 11 19 6 6 17 17 16 13 6 8 29 70 70 61 55 52 50 50 50 45 42 37 30 25 24 23 18 22 24
17 7 8 30 11 16 28 7 5 6 4 21 13 13 30 20 17 13 14 17 16 13 13 22 39 51 49 55 55 52 52 50 46 41 34 33 32 33 31 29 26 23 26 27
9 12 17 26 21 14 17 7 5 12 6 9 5 11 14 19 23 11 16 27 20 18 25 39 51 53 54 56 56 53 49 48 43 40 36 36 35 35 34 30 26 24 26 29
11 9 6 37 19 13 15 10 31 12 11 7 8 15 46 43 40 17 22 29 23 25 33 41 45 49 49 46 43 40 38 35 34 34 32 30 28 28 29 30 28 22 18 16
9 14 10 22 25 20 24 21 9 8 10 12 13 13 1 30 37 41 33 32 22 30 37 42 42 39 34 36 36 36 36 39 36 37 30 26 26 23 22 21 21 18 16 16
5 9 13 21 14 30 15 11 7 4 9 7 8 4 8 13 21 31 37 38 12 25 37 34 35 37 37 31 24 30 32 30 29 27 26 32 30 28 24 21 19 23 23 23
4 4 10 12 16 28 26 24 2 5 11 10 4 5 3 11 22 42 49 63 36 18 10 18 32 36 35 25 29 37 34 33 31 31 31 32 29 26 24 18 14 10 13 18
4 3 8 17 9 10 7 12 12 15 9 11 7 5 19 28 33 43 44 57 66 46 28 23 34 35 28 22 37 35 33 32 30 26 27 29 26 22 18 13 9 11 12 13
10 9 12 10 15 16 28 22 17 18 16 18 20 31 31 33 24 31 41 61 76 70 23 35 33 33 24 32 35 37 36 30 21 24 23 22 20 15 13 9 5 4 1 8
10 11 11 20 20 28 31 37 36 25 24 22 30 30 29 28 16 18 23 37 63 59 37 30 37 33 27 34 36 35 31 27 26 23 18 18 16 16 13 10 4 10 10 7
5 9 8 11 17 24 33 36 40 38 33 30 27 34 22 43 25 21 15 33 46 52 56 35 37 32 34 40 42 35 33 30 27 24 19 23 21 20 17 8 12 17 20 22
5 3 5 16 13 18 24 30 30 34 32 23 25 27 28 20 22 31 9 18 24 41 39 34 22 36 29 46 44 38 33 29 27 22 27 26 25 22 15 7 23 26 30 30
10 7 5 9 3 7 17 16 22 29 36 35 35 29 36 42 45 28 10 8 17 38 44 20 27 33 29 23 49 39 32 24 26 19 32 27 26 23 20 20 30 33 36 38
30 9 5 5 6 20 18 16 14 22 30 15 27 38 41 34 32 19 24 5 10 25 34 26 22 16 12 28 42 41 34 23 26 23 33 28 31 29 27 31 39 36 36 40
12 13 9 3 6 9 6 24 45 14 18 43 50 30 17 24 7 6 27 13 7 7 23 30 24 19 11 27 36 44 36 28 29 30 32 29 30 32 28 34 39 37 36 38
4 2 11 13 10 13 9 18 19 9 10 49 55 53 24 2 9 25 22 4 3 11 19 22 30 20 8 35 39 47 38 32 33 32 33 31 33 34 30 33 38 40 43 46
7 5 7 0 5 10 3 21 13 14 11 35 54 8 23 24 18 15 14 13 5 12 26 24 17 14 9 37 46 50 43 36 37 34 34 35 37 38 35 40 45 45 45 50
6 12 6 11 7 24 40 29 48 36 23 26 38 11 24 19 13 14 17 13 18 3 19 21 10 13 9 32 42 49 44 38 40 37 39 40 41 41 40 46 48 50 48 38
9 3 3 3 8 15 43 30 33 33 35 29 37 3 12 12 9 11 14 13 11 6 12 23 16 5 20 20 38 42 43 39 42 42 44 46 45 46 45 45 46 43 39 39
13 10 4 13 19 30 17 29 37 35 41 35 34 20 14 18 14 17 18 15 12 8 7 16 16 16 16 20 44 44 44 41 43 44 49 52 49 44 50 46 37 33 29 30
17 17 8 10 27 27 25 35 30 35 37 35 36 29 22 23 13 10 21 25 22 15 11 11 17 9 5 23 43 45 42 40 43 51 57 58 54 51 48 45 41 30 27 31
Wind_Direction_500mb
211 174 215 234 228 233 253 268 273 278 291 288 246 251 257 265 270 272 270 267 260 260 257 261 271 227 211 211 208 200 195 190 199 203 210 218 220 224 225 232 240 243 248 251
284 241 230 230 239 245 248 267 289 293 327 327 317 297 270 269 267 274 268 264 266 266 267 260 257 233 207 204 200 199 198 199 210 218 216 221 225 225 232 237 238 246 244 236
227 240 248 226 245 254 256 252 276 269 265 282 308 285 283 271 266 272 271 266 259 256 254 256 255 237 205 202 198 198 199 203 205 214 217 222 224 227 223 233 248 262 266 232
250 249 244 265 263 221 260 232 264 279 333 279 157 290 283 278 276 282 273 278 261 252 253 242 242 229 208 203 202 203 197 201 204 211 217 227 232 232 241 257 265 266 246 213
256 323 321 326 278 265 262 254 260 232 253 321 184 256 289 303 278 267 279 236 123 119 87 210 246 225 206 198 197 195 195 203 211 212 217 219 223 231 239 230 216 209 192 202
261 292 282 301 308 299 300 332 329 269 140 259 249 173 276 244 237 218 74 129 107 89 101 112 158 191 186 180 183 186 191 194 201 209 218 224 225 219 215 197 203 211 205 196
322 299 69 20 6 351 13 46 339 296 178 239 175 200 236 270 265 208 177 155 137 113 117 144 162 159 154 164 169 177 185 189 199 210 216 216 209 202 204 207 220 231 220 220
352 331 11 33 37 325 302 279 222 276 243 284 291 230 249 234 224 200 160 163 154 134 139 154 161 163 162 166 170 174 180 192 203 212 206 204 206 207 209 216 219 225 224 230
351 277 360 46 10 330 326 34 303 253 236 239 241 307 313 359 353 276 140 157 162 154 159 162 161 161 165 169 171 181 184 191 195 201 199 196 195 202 205 214 219 229 207 196
65 297 26 4 342 37 356 310 336 338 265 232 221 233 209 358 355 346 2 345 153 159 156 156 163 162 168 179 182 177 173 180 182 197 197 175 171 165 169 176 177 182 186 201
69 186 282 7 8 331 332 303 318 253 250 278 270 173 30 343 8 358 1 354 348 146 151 159 169 165 171 178 189 176 179 181 167 158 151 149 156 164 167 178 196 203 210 219
49 247 288 321 301 274 272 285 266 195 309 286 286 252 63 329 352 0 357 355 342 286 164 167 174 169 170 163 176 163 162 162 168 159 158 159 162 172 193 199 198 210 230 245
32 344 333 325 341 34 10 352 327 268 234 260 292 226 3 3 355 350 336 346 345 310 237 175 166 160 151 157 170 168 168 172 174 175 171 179 178 178 177 189 208 255 266 264
245 202 162 225 250 276 296 297 302 284 273 274 271 291 306 326 329 329 335 341 337 325 266 176 166 165 167 161 163 168 173 177 182 177 165 166 171 180 181 189 199 273 186 8
161 215 237 256 271 285 294 297 294 275 262 263 286 263 278 284 285 297 321 341 330 322 278 193 183 182 168 171 173 178 176 175 171 167 168 161 167 174 171 177 172 105 109 110
270 272 289 295 302 295 294 283 278 277 277 278 273 274 241 263 229 260 317 323 334 315 337 212 187 183 183 177 176 181 181 180 177 178 189 164 159 158 155 135 124 125 116 109
235 183 44 276 303 312 290 268 256 262 263 269 274 277 286 247 209 224 265 332 332 319 309 22 229 194 175 195 186 176 168 182 180 186 164 163 157 157 161 154 139 126 126 120
218 124 183 279 311 251 245 282 269 261 266 266 270 273 268 260 233 203 189 12 312 323 313 344 354 208 197 181 189 175 169 181 176 190 167 165 158 159 153 160 141 122 134 126
208 152 229 212 198 274 293 277 2 296 278 275 287 268 269 251 153 210 211 170 319 332 301 291 335 320 201 195 183 179 167 173 172 170 163 164 164 158 153 158 147 134 137 128
131 180 189 181 244 267 273 326 315 289 285 354 338 287 180 138 149 235 190 211 252 299 312 285 273 340 206 199 186 182 172 171 174 173 172 170 164 157 155 162 155 149 150 137
129 234 182 222 246 266 261 299 346 15 316 323 333 317 140 162 137 127 163 190 191 303 344 314 274 309 248 202 194 185 180 175 173 177 180 169 162 158 161 163 155 148 140 135
211 183 213 354 188 270 349 312 342 264 267 322 332 56 52 47 69 93 102 48 42 334 346 345 294 315 356 196 194 187 180 177 172 178 172 164 158 159 160 161 150 149 147 142
273 185 198 187 205 268 311 320 319 300 295 302 336 2 103 93 38 41 49 25 49 41 345 357 358 218 193 192 202 188 184 179 175 177 169 162 160 160 164 162 158 156 151 151
286 300 196 305 263 278 303 322 352 338 290 317 319 284 64 68 24 24 26 23 15 35 13 1 18 211 183 196 202 205 189 183 176 176 169 163 158 160 164 166 168 167 167 165
229 326 269 270 287 299 297 331 341 344 334 327 322 268 273 306 323 331 336 344 344 357 323 350 16 7 206 202 193 199 191 180 176 175 169 163 157 161 165 167 168 169 178 184
209 237 212 240 280 280 288 308 308 316 316 322 324 317 257 268 272 309 316 328 333 335 319 327 18 5 354 188 191 192 193 182 179 176 170 166 160 167 173 173 165 174 181 168
Wind_Speed_850mb
19 7 14 22 16 17 17 26 27 18 12 11 10 16 21 34 32 32 50 53 53 52 50 49 43 62 58 56 58 60 64 60 54 49 50 45 40 36 34 31 30 30 32 34
9 18 20 24 22 23 20 19 18 18 10 18 23 39 19 16 23 51 44 56 65 67 66 58 59 60 68 66 66 67 67 58 51 46 45 46 40 35 28 32 36 37 30 38
19 18 16 26 26 26 21 12 18 22 8 7 14 38 23 17 33 51 59 68 68 65 63 63 59 53 76 76 74 71 65 58 53 48 49 47 39 34 33 29 26 25 27 31
17 26 22 30 17 15 15 14 20 11 9 15 10 20 29 19 28 32 41 48 36 33 30 32 41 43 85 86 80 75 66 59 52 52 53 49 47 40 29 23 25 23 29 31
13 16 14 12 10 12 18 8 20 11 9 10 6 3 24 10 15 20 20 15 16 13 11 5 18 26 79 85 80 70 61 56 53 52 50 50 47 41 35 27 16 12 25 24
17 26 12 10 19 15 14 10 10 6 6 12 14 13 39 11 19 6 6 17 17 16 13 6 8 29 70 70 61 55 52 50 50 50 45 42 37 30 25 24 23 18 22 24
17 7 8 30 11 16 28 7 5 6 4 21 13 13 30 20 17 13 14 17 16 13 13 22 39 51 49 55 55 52 52 50 46 41 34 33 32 33 31 29 26 23 26 27
9 12 17 26 21 14 17 7 5 12 6 9 5 11 14 19 23 11 16 27 20 18 25 39 51 53 54 56 56 53 49 48 43 40 36 36 35 35 34 30 26 24 26 29
11 9 6 37 19 13 15 10 31 12 11 7 8 15 46 43 40 17 22 29 23 25 33 41 45 49 49 46 43 40 38 35 34 34 32 30 28 28 29 30 28 22 18 16
9 14 10 22 25 20 24 21 9 8 10 12 13 13 1 30 37 41 33 32 22 30 37 42 42 39 34 36 36 36 36 39 36 37 30 26 26 23 22 21 21 18 16 16
5 9 13 21 14 30 15 11 7 4 9 7 8 4 8 13 21 31 37 38 12 25 37 34 35 37 37 31 24 30 32 30 29 27 26 32 30 28 24 21 19 23 23 23
4 4 10 12 16 28 26 24 2 5 11 10 4 5 3 11 22 42 49 63 36 18 10 18 32 36 35 25 29 37 34 33 31 31 31 32 29 26 24 18 14 10 13 18
4 3 8 17 9 10 7 12 12 15 9 11 7 5 19 28 33 43 44 57 66 46 28 23 34 35 28 22 37 35 33 32 30 26 27 29 26 22 18 13 9 11 12 13
10 9 12 10 15 16 28 22 17 18 16 18 20 31 31 33 24 31 41 61 76 70 23 35 33 33 24 32 35 37 36 30 21 24 23 22 20 15 13 9 5 4 1 8
10 11 11 20 20 28 31 37 36 25 24 22 30 30 29 28 16 18 23 37 63 59 37 30 37 33 27 34 36 35 31 27 26 23 18 18 16 16 13 10 4 10 10 7
5 9 8 11 17 24 33 36 40 38 33 30 27 34 22 43 25 21 15 33 46 52 56 35 37 32 34 40 42 35 33 30 27 24 19 23 21 20 17 8 12 17 20 22
5 3 5 16 13 18 24 30 30 34 32 23 25 27 28 20 22 31 9 18 24 41 39 34 22 36 29 46 44 38 33 29 27 22 27 26 25 22 15 7 23 26 30 30
10 7 5 9 3 7 17 16 22 29 36 35 35 29 36 42 45 28 10 8 17 38 44 20 27 33 29 23 49 39 32 24 26 19 32 27 26 23 20 20 30 33 36 38
30 9 5 5 6 20 18 16 14 22 30 15 27 38 41 34 32 19 24 5 10 25 34 26 22 16 12 28 42 41 34 23 26 23 33 28 31 29 27 31 39 36 36 40
12 13 9 3 6 9 6 24 45 14 18 43 50 30 17 24 7 6 27 13 7 7 23 30 24 19 11 27 36 44 36 28 29 30 32 29 30 32 28 34 39 37 36 38
4 2 11 13 10 13 9 18 19 9 10 49 55 53 24 2 9 25 22 4 3 11 19 22 30 20 8 35 39 47 38 32 33 32 33 31 33 34 30 33 38 40 43 46
7 5 7 0 5 10 3 21 13 14 11 35 54 8 23 24 18 15 14 13 5 12 26 24 17 14 9 37 46 50 43 36 37 34 34 35 37 38 35 40 45 45 45 50
6 12 6 11 7 24 40 29 48 36 23 26 38 11 24 19 13 14 17 13 18 3 19 21 10 13 9 32 42 49 44 38 40 37 39 40 41 41 40 46 48 50 48 38
9 3 3 3 8 15 43 30 33 33 35 29 37 3 12 12 9 11 14 13 11 6 12 23 16 5 20 20 38 42 43 39 42 42 44 46 45 46 45 45 46 43 39 39
13 10 4 13 19 30 17 29 37 35 41 35 34 20 14 18 14 17 18 15 12 8 7 16 16 16 16 20 44 44 44 41 43 44 49 52 49 44 50 46 37 33 29 30
17 17 8 10 27 27 25 35 30 35 37 35 36 29 22 23 13 10 21 25 22 15 11 11 17 9 5 23 43 45 42 40 43 51 57 58 54 51 48 45 41 30 27 31
Wind_Direction_850mb
211 174 215 234 228 233 253 268 273 278 291 288 246 251 257 265 270 272 270 267 260 260 257 261 271 227 211 211 208 200 195 190 199 203 210 218 220 224 225 232 240 243 248 251
284 241 230 230 239 245 248 267 289 293 327 327 317 297 270 269 267 274 268 264 266 266 267 260 257 233 207 204 200 199 198 199 210 218 216 221 225 225 232 237 238 246 244 236
227 240 248 226 245 254 256 252 276 269 265 282 308 285 283 271 266 272 271 266 259 256 254 256 255 237 205 202 198 198 199 203 205 214 217 222 224 227 223 233 248 262 266 232
250 249 244 265 263 221 260 232 264 279 333 279 157 290 283 278 276 282 273 278 261 252 253 242 242 229 208 203 202 203 197 201 204 211 217 227 232 232 241 257 265 266 246 213
256 323 321 326 278 265 262 254 260 232 253 321 184 256 289 303 278 267 279 236 123 119 87 210 246 225 206 198 197 195 195 203 211 212 217 219 223 231 239 230 216 209 192 202
261 292 282 301 308 299 300 332 329 269 140 259 249 173 276 244 237 218 74 129 107 89 101 112 158 191 186 180 183 186 191 194 201 209 218 224 225 219 215 197 203 211 205 196
322 299 69 20 6 351 13 46 339 296 178 239 175 200 236 270 265 208 177 155 137 113 117 144 162 159 154 164 169 177 185 189 199 210 216 216 209 202 204 207 220 231 220 220
352 331 11 33 37 325 302 279 222 276 243 284 291 230 249 234 224 200 160 163 154 134 139 154 161 163 162 166 170 174 180 192 203 212 206 204 206 207 209 216 219 225 224 230
351 277 360 46 10 330 326 34 303 253 236 239 241 307 313 359 353 276 140 157 162 154 159 162 161 161 165 169 171 181 184 191 195 201 199 196 195 202 205 214 219 229 207 196
65 297 26 4 342 37 356 310 336 338 265 232 221 233 209 358 355 346 2 345 153 159 156 156 163 162 168 179 182 177 173 180 182 197 197 175 171 165 169 176 177 182 186 201
69 186 282 7 8 331 332 303 318 253 250 278 270 173 30 343 8 358 1 354 348 146 151 159 169 165 171 178 189 176 179 181 167 158 151 149 156 164 167 178 196 203 210 219
49 247 288 321 301 274 272 285 266 195 309 286 286 252 63 329 352 0 357 355 342 286 164 167 174 169 170 163 176 163 162 162 168 159 158 159 162 172 193 199 198 210 230 245
32 344 333 325 341 34 10 352 327 268 234 260 292 226 3 3 355 350 336 346 345 310 237 175 166 160 151 157 170 168 168 172 174 175 171 179 178 178 177 189 208 255 266 264
245 202 162 225 250 276 296 297 302 284 273 274 271 291 306 326 329 329 335 341 337 325 266 176 166 165 167 161 163 168 173 177 182 177 165 166 171 180 181 189 199 273 186 8
161 215 237 256 271 285 294 297 294 275 262 263 286 263 278 284 285 297 321 341 330 322 278 193 183 182 168 171 173 178 176 175 171 167 168 161 167 174 171 177 172 105 109 110
270 272 289 295 302 295 294 283 278 277 277 278 273 274 241 263 229 260 317 323 334 315 337 212 187 183 183 177 176 181 181 180 177 178 189 164 159 158 155 135 124 125 116 109
235 183 44 276 303 312 290 268 256 262 263 269 274 277 286 247 209 224 265 332 332 319 309 22 229 194 175 195 186 176 168 182 180 186 164 163 157 157 161 154 139 126 126 120
218 124 183 279 311 251 245 282 269 261 266 266 270 273 268 260 233 203 189 12 312 323 313 344 354 208 197 181 189 175 169 181 176 190 167 165 158 159 153 160 141 122 134 126
208 152 229 212 198 274 293 277 2 296 278 275 287 268 269 251 153 210 211 170 319 332 301 291 335 320 201 195 183 179 167 173 172 170 163 164 164 158 153 158 147 134 137 128
131 180 189 181 244 267 273 326 315 289 285 354 338 287 180 138 149 235 190 211 252 299 312 285 273 340 206 199 186 182 172 171 174 173 172 170 164 157 155 162 155 149 150 137
129 234 182 222 246 266 261 299 346 15 316 323 333 317 140 162 137 127 163 190 191 303 344 314 274 309 248 202 194 185 180 175 173 177 180 169 162 158 161 163 155 148 140 135
211 183 213 354 188 270 349 312 342 264 267 322 332 56 52 47 69 93 102 48 42 334 346 345 294 315 356 196 194 187 180 177 172 178 172 164 158 159 160 161 150 149 147 142
273 185 198 187 205 268 311 320 319 300 295 302 336 2 103 93 38 41 49 25 49 41 345 357 358 218 193 192 202 188 184 179 175 177 169 162 160 160 164 162 158 156 151 151
286 300 196 305 263 278 303 322 352 338 290 317 319 284 64 68 24 24 26 23 15 35 13 1 18 211 183 196 202 205 189 183 176 176 169 163 158 160 164 166 168 167 167 165
229 326 269 270 287 299 297 331 341 344 334 327 322 268 273 306 323 331 336 344 344 357 323 350 16 7 206 202 193 199 191 180 176 175 169 163 157 161 165 167 168 169 178 184
209 237 212 240 280 280 288 308 308 316 316 322 324 317 257 268 272 309 316 328 333 335 319 327 18 5 354 188 191 192 193 182 179 176 170 166 160 167 173 173 165 174 181 168